[[{"header":{"parameterUnit":"m.s-1","parameterCategory":1,"la1":30.2991,"la2":30.254,"lo1":-89.0895,"lo2":-89.0444,"dy":0.0017,"dx":0.0017,"nx":28,"ny":28,"refTime":"2024-08-10T21:00:00:Z","depth":0,"parameterNumber":2,"parameterNumberName":"U-component_of_WINDS"},"data":[0,0,0,0,0,0,0,0,0,0,0,0,0,0,0,0,0,0,0,0,0,0,0,0,0,0,0,0,0,0,0,0,0,0,0,0,0,0,0,0,0,0,0,0,0,0,0,0,0,0,0,0,0,0,0,0,0,0,-0.4496,-0.4496,0,-0.4478,-0.4478,-0.4478,-0.4459,-0.4459,-0.4458,-0.4458,-0.4441,-0.444,-0.444,0,0,0,0,0,0,0,0,0,0,0,0,0,-0.4513,-0.4513,-0.4496,-0.4496,-0.4495,-0.4478,-0.4478,-0.4478,-0.4459,-0.4459,-0.4458,-0.4458,-0.4441,-0.444,-0.444,0,0,0,0,0,0,0,0,0,0,0,0,0,-0.4502,-0.4513,-0.4496,-0.4484,-0.4483,-0.4478,-0.4478,-0.4478,-0.4459,-0.4459,-0.4458,-0.4458,-0.4441,-0.444,-0.444,-0.4446,0,0,-0.4439,-0.4439,0,0,0,0,0,0,0,0,-0.4502,-0.4501,-0.4486,-0.4485,-0.4483,-0.447,-0.4478,-0.4467,-0.4459,-0.4468,-0.4458,-0.4458,-0.4451,-0.445,-0.4447,-0.4445,-0.4445,-0.4439,-0.4439,-0.4439,-0.4439,0,0,0,0,0,0,0,-0.4503,-0.4502,-0.4489,-0.4486,-0.4484,-0.4479,-0.4477,-0.4476,-0.4462,-0.4467,-0.4466,-0.4464,-0.445,-0.4448,-0.4447,-0.4444,-0.4439,-0.4439,-0.4439,-0.4439,-0.4446,-0.4447,0,0,0,0,0,0,-0.4506,-0.4503,-0.4489,-0.4488,-0.4492,-0.4479,-0.4477,-0.4475,-0.4462,-0.446,-0.4464,-0.4463,-0.4448,-0.4447,-0.4446,-0.4453,-0.4439,-0.4438,-0.4438,-0.4446,-0.4446,-0.4447,0,0,0,0,0,0,-0.4506,-0.4505,-0.449,-0.4495,-0.4493,-0.448,-0.4477,-0.4475,-0.4472,-0.446,-0.4457,-0.4464,-0.4448,-0.4446,-0.4446,-0.4452,-0.4438,-0.4438,-0.4445,-0.4446,-0.4447,-0.4466,0,0,0,0,0,0,-0.4507,-0.4505,-0.4507,-0.4495,-0.4493,-0.4491,-0.4478,-0.4475,-0.4472,-0.447,-0.4459,-0.4457,-0.4448,-0.4447,-0.4446,-0.4451,-0.4438,-0.4445,-0.4446,-0.4446,-0.4464,-0.4467,-0.4469,0,0,0,0,0,-0.4508,-0.4514,-0.4508,-0.4506,-0.4495,-0.4491,-0.449,-0.4479,-0.4472,-0.4475,-0.4466,-0.4457,-0.4451,-0.4447,-0.4446,-0.4451,-0.4445,-0.4446,-0.4446,-0.4463,-0.4466,-0.4469,0,0,0,0,0,0,-0.4527,-0.4512,-0.4505,-0.4507,-0.4501,-0.4488,-0.4491,-0.4482,-0.4477,-0.4476,-0.4463,-0.446,-0.4462,-0.4456,-0.4452,-0.4456,-0.4446,-0.4447,-0.446,-0.4462,-0.4464,-0.4466,-0.4438,0,0,0,0,0,-0.4532,-0.453,-0.4516,-0.452,-0.4516,-0.4504,-0.4502,-0.4494,-0.4487,-0.4484,-0.4475,-0.4469,-0.4465,-0.4463,-0.4459,-0.4463,-0.446,-0.4466,-0.4468,-0.447,-0.4471,-0.4472,-0.4475,-0.445,-0.445,-0.445,0,0,-0.4541,-0.4533,-0.4532,-0.4523,-0.4517,-0.4515,-0.4502,-0.4501,-0.4499,-0.4484,-0.4483,-0.4476,-0.4468,-0.447,-0.447,-0.4465,-0.4477,-0.4471,-0.4472,-0.4473,-0.4474,-0.4476,-0.4478,-0.445,-0.445,-0.445,0,0,-0.4558,-0.4551,-0.4553,-0.4547,-0.4538,-0.4529,-0.453,-0.4518,-0.4513,-0.4512,-0.45,-0.4498,-0.4492,-0.4487,-0.4483,-0.4496,-0.4488,-0.4495,-0.4507,-0.4509,-0.4511,-0.4513,-0.4518,-0.452,-0.4496,-0.4496,-0.4496,0,-0.4571,-0.4568,-0.4555,-0.4555,-0.4551,-0.4536,-0.4538,-0.4533,-0.4523,-0.4521,-0.4515,-0.4507,-0.45,-0.4501,-0.4504,-0.4501,-0.4501,-0.4497,-0.4512,-0.4513,-0.4515,-0.452,-0.4522,-0.4497,-0.4497,-0.4497,-0.4497,0,-0.4585,-0.4583,-0.4586,-0.4576,-0.4573,-0.4573,-0.4561,-0.4559,-0.455,-0.4542,-0.4541,-0.4533,-0.4527,-0.4526,-0.4518,-0.4525,-0.4522,-0.4514,-0.4505,-0.4518,-0.4523,-0.4524,-0.4499,-0.4499,-0.4498,-0.4498,0,0,-0.4615,-0.4598,-0.4599,-0.4594,-0.4582,-0.4581,-0.458,-0.4574,-0.4573,-0.4566,-0.4566,-0.456,-0.4553,-0.4549,-0.454,-0.4541,-0.4553,-0.4533,-0.4533,-0.4538,-0.456,-0.4567,-0.457,-0.4547,-0.4547,-0.4547,-0.4561,0,-0.4631,-0.4629,-0.4617,-0.462,-0.4618,-0.4603,-0.4602,-0.4595,-0.4587,-0.4584,-0.4575,-0.4572,-0.4562,-0.456,-0.456,-0.4552,-0.4558,-0.455,-0.4547,-0.4547,-0.4551,-0.4572,-0.4579,-0.4593,-0.4563,-0.4563,-0.4563,0,-0.4649,-0.4643,-0.4645,-0.4633,-0.4631,-0.4631,-0.4625,-0.4622,-0.4613,-0.4607,-0.4602,-0.4592,-0.459,-0.458,-0.4579,-0.4574,-0.4571,-0.4567,-0.4567,-0.4567,-0.4557,-0.4574,-0.4597,-0.46,-0.4566,-0.4566,-0.4566,0,-0.4672,-0.4664,-0.4664,-0.4661,-0.4646,-0.4646,-0.464,-0.4631,-0.4628,-0.4621,-0.4619,-0.4613,-0.461,-0.4605,-0.4593,-0.4587,-0.4593,-0.4582,-0.4589,-0.4589,-0.4592,-0.4592,-0.4617,-0.4588,-0.4588,-0.4588,-0.4588,0,-0.4691,-0.4693,-0.4674,-0.4675,-0.4677,-0.4662,-0.4664,-0.4657,-0.4648,-0.4647,-0.4633,-0.4632,-0.4616,-0.4613,-0.4603,-0.4604,-0.4602,-0.4597,-0.4595,-0.4599,-0.46,-0.4599,-0.4598,-0.4589,-0.4589,-0.4589,-0.4588,0,-0.4718,-0.4705,-0.4705,-0.469,-0.4687,-0.4689,-0.4676,-0.4676,-0.4667,-0.4665,-0.4664,-0.465,-0.4645,-0.4633,-0.4625,-0.4619,-0.4622,-0.4617,-0.4625,-0.4624,-0.4632,-0.4632,-0.4657,-0.466,-0.4629,-0.4629,-0.463,0,-0.4732,-0.4733,-0.4718,-0.4716,-0.4711,-0.4708,-0.4704,-0.4689,-0.4686,-0.4676,-0.4677,-0.4671,-0.4666,-0.466,-0.4649,-0.4643,-0.4638,-0.4647,-0.4637,-0.4642,-0.464,-0.464,-0.464,-0.465,-0.4651,-0.4651,-0.4651,0,-0.4758,-0.4751,-0.4747,-0.474,-0.4736,-0.473,-0.4723,-0.4722,-0.4706,-0.4703,-0.4698,-0.4694,-0.4686,-0.4681,-0.4673,-0.4667,-0.4657,-0.4654,-0.4656,-0.4661,-0.4666,-0.4664,-0.4633,-0.4654,-0.4654,-0.4654,-0.4654,-0.4653,-0.4779,-0.478,-0.4769,-0.4765,-0.4758,-0.4752,-0.4751,-0.4741,-0.4737,-0.4729,-0.472,-0.4716,-0.4707,-0.4695,-0.4689,-0.4686,-0.4681,-0.4682,-0.4683,-0.4684,-0.4686,-0.4665,-0.4684,-0.4684,-0.4684,-0.4684,-0.4684,0,-0.4806,-0.4798,-0.4794,-0.4784,-0.4781,-0.477,-0.4762,-0.476,-0.4756,-0.4748,-0.4743,-0.4737,-0.4732,-0.472,-0.4713,-0.4713,-0.4708,-0.4712,-0.4713,-0.4711,-0.4691,-0.4691,-0.4716,-0.4716,-0.4716,-0.4716,-0.4716,-0.4716,-0.4819,-0.4819,-0.4811,-0.4808,-0.48,-0.4796,-0.4792,-0.4786,-0.478,-0.4774,-0.4769,-0.4761,-0.4751,-0.4744,-0.4738,-0.4735,-0.4733,-0.4739,-0.4734,-0.4716,-0.4713,-0.471,-0.471,-0.4738,-0.4738,-0.4755,-0.4755,-0.4755]},{"header":{"parameterUnit":"m.s-1","parameterCategory":1,"la1":30.2991,"la2":30.254,"lo1":-89.0895,"lo2":-89.0444,"dy":0.0017,"dx":0.0017,"nx":28,"ny":28,"refTime":"2024-08-10T21:00:00:Z","depth":0,"parameterNumber":3,"parameterNumberName":"V-component_of_WINDS"},"data":[0,0,0,0,0,0,0,0,0,0,0,0,0,0,0,0,0,0,0,0,0,0,0,0,0,0,0,0,0,0,0,0,0,0,0,0,0,0,0,0,0,0,0,0,0,0,0,0,0,0,0,0,0,0,0,0,0,0,-3.308,-3.308,0,-3.3146,-3.3146,-3.3147,-3.3145,-3.3144,-3.3144,-3.3143,-3.3206,-3.3208,-3.3211,0,0,0,0,0,0,0,0,0,0,0,0,0,-3.2948,-3.2951,-3.3079,-3.308,-3.3081,-3.3145,-3.3146,-3.3147,-3.3146,-3.3144,-3.3143,-3.3142,-3.3205,-3.3208,-3.3211,0,0,0,0,0,0,0,0,0,0,0,0,0,-3.3009,-3.2952,-3.3079,-3.3088,-3.309,-3.3145,-3.3146,-3.3147,-3.3146,-3.3144,-3.3143,-3.3142,-3.3204,-3.3208,-3.3212,-3.3261,0,0,-3.3223,-3.3225,0,0,0,0,0,0,0,0,-3.3005,-3.3014,-3.3086,-3.3088,-3.3089,-3.3136,-3.3123,-3.3186,-3.3146,-3.3124,-3.3143,-3.3141,-3.3183,-3.3189,-3.3204,-3.3264,-3.3267,-3.3223,-3.3226,-3.3227,-3.3228,0,0,0,0,0,0,0,-3.3001,-3.3011,-3.3105,-3.3087,-3.3089,-3.3088,-3.3095,-3.3135,-3.316,-3.3126,-3.3126,-3.3134,-3.3184,-3.32,-3.3205,-3.3268,-3.3223,-3.3227,-3.3229,-3.323,-3.3374,-3.3375,0,0,0,0,0,0,-3.2996,-3.3007,-3.3103,-3.3107,-3.3043,-3.3091,-3.3099,-3.3122,-3.316,-3.3165,-3.3135,-3.3134,-3.3195,-3.3201,-3.3208,-3.327,-3.3227,-3.3231,-3.3233,-3.3372,-3.3374,-3.3376,0,0,0,0,0,0,-3.2993,-3.3004,-3.3101,-3.3057,-3.307,-3.3095,-3.3121,-3.3124,-3.3141,-3.3167,-3.3171,-3.3148,-3.3194,-3.3202,-3.3249,-3.3272,-3.3232,-3.3236,-3.337,-3.3373,-3.3375,-3.3394,0,0,0,0,0,0,-3.2989,-3.3003,-3.3023,-3.3058,-3.3072,-3.3142,-3.3122,-3.3127,-3.3148,-3.3147,-3.318,-3.3184,-3.3193,-3.3243,-3.3252,-3.3276,-3.3239,-3.3368,-3.3371,-3.3374,-3.3391,-3.3396,-3.3401,0,0,0,0,0,-3.2984,-3.3025,-3.3024,-3.3036,-3.3098,-3.3143,-3.3151,-3.3163,-3.315,-3.317,-3.3187,-3.3183,-3.3268,-3.3248,-3.3258,-3.3284,-3.3367,-3.3371,-3.3374,-3.3389,-3.3395,-3.3401,0,0,0,0,0,0,-3.299,-3.3029,-3.3029,-3.3082,-3.311,-3.3143,-3.3168,-3.3169,-3.3199,-3.3197,-3.3208,-3.3216,-3.3262,-3.3277,-3.3255,-3.3335,-3.3316,-3.3321,-3.3323,-3.333,-3.3334,-3.333,-3.3242,0,0,0,0,0,-3.2998,-3.3033,-3.3064,-3.3108,-3.3122,-3.3143,-3.3163,-3.317,-3.3198,-3.3209,-3.3229,-3.3256,-3.3288,-3.331,-3.3341,-3.3393,-3.34,-3.3416,-3.342,-3.3424,-3.3429,-3.3459,-3.3466,-3.3387,-3.3387,-3.3387,0,0,-3.3013,-3.3039,-3.306,-3.311,-3.3132,-3.3167,-3.3152,-3.319,-3.3216,-3.3214,-3.326,-3.3276,-3.3306,-3.3356,-3.3378,-3.337,-3.3453,-3.3429,-3.3432,-3.3435,-3.3463,-3.3471,-3.3478,-3.339,-3.3389,-3.3389,0,0,-3.3061,-3.3083,-3.3123,-3.3146,-3.318,-3.3194,-3.3203,-3.3237,-3.3248,-3.3295,-3.3294,-3.3324,-3.338,-3.3402,-3.3421,-3.3477,-3.3475,-3.3487,-3.3513,-3.3541,-3.3548,-3.3553,-3.3575,-3.3582,-3.3492,-3.3492,-3.3492,0,-3.3075,-3.313,-3.3143,-3.3181,-3.3203,-3.3205,-3.3245,-3.3266,-3.3308,-3.3323,-3.3312,-3.3384,-3.3404,-3.3459,-3.3473,-3.3488,-3.3499,-3.3484,-3.3546,-3.3552,-3.3557,-3.3577,-3.3585,-3.3493,-3.3493,-3.3493,-3.3493,0,-3.3147,-3.3185,-3.3212,-3.3255,-3.328,-3.3319,-3.3337,-3.336,-3.3365,-3.3379,-3.3427,-3.3451,-3.3489,-3.3502,-3.3506,-3.3558,-3.3552,-3.3544,-3.3525,-3.3566,-3.3585,-3.3593,-3.3495,-3.3494,-3.3494,-3.3494,0,0,-3.3199,-3.325,-3.326,-3.328,-3.3319,-3.3347,-3.3386,-3.3424,-3.3445,-3.3473,-3.3506,-3.3554,-3.3547,-3.3568,-3.3574,-3.3599,-3.3644,-3.3588,-3.3589,-3.3599,-3.3704,-3.3711,-3.372,-3.3643,-3.3644,-3.3645,-3.3702,0,-3.3251,-3.3323,-3.3336,-3.3397,-3.3432,-3.3435,-3.3469,-3.3495,-3.351,-3.3541,-3.3556,-3.3591,-3.3578,-3.3591,-3.3616,-3.3633,-3.3666,-3.3629,-3.3673,-3.3674,-3.3667,-3.373,-3.3737,-3.379,-3.371,-3.3711,-3.3712,0,-3.3322,-3.3355,-3.3421,-3.3456,-3.3471,-3.3501,-3.3538,-3.3568,-3.3598,-3.3606,-3.3631,-3.3635,-3.3674,-3.3653,-3.3708,-3.3683,-3.3701,-3.3712,-3.3715,-3.372,-3.3696,-3.3738,-3.3807,-3.3815,-3.3724,-3.3723,-3.3722,0,-3.3355,-3.3416,-3.3463,-3.348,-3.3522,-3.3543,-3.3561,-3.359,-3.3613,-3.3644,-3.3659,-3.3693,-3.3712,-3.3739,-3.3752,-3.3735,-3.3806,-3.3786,-3.3814,-3.3814,-3.383,-3.3829,-3.3904,-3.384,-3.384,-3.3839,-3.3839,0,-3.3412,-3.3453,-3.3479,-3.3509,-3.3554,-3.3568,-3.3612,-3.3629,-3.3655,-3.3687,-3.369,-3.372,-3.3735,-3.3766,-3.3776,-3.3821,-3.3829,-3.3837,-3.3839,-3.3837,-3.3837,-3.385,-3.3847,-3.3842,-3.3841,-3.3841,-3.384,0,-3.3458,-3.3477,-3.3529,-3.3565,-3.3575,-3.3607,-3.3637,-3.3665,-3.368,-3.372,-3.3731,-3.3753,-3.3791,-3.3807,-3.3852,-3.3858,-3.391,-3.3909,-3.3901,-3.3902,-3.393,-3.3927,-3.4017,-3.403,-3.3956,-3.3957,-3.3958,0,-3.3494,-3.3525,-3.3565,-3.3588,-3.3607,-3.3643,-3.3667,-3.3682,-3.3706,-3.3743,-3.3767,-3.3805,-3.3836,-3.3896,-3.3916,-3.3951,-3.3951,-3.398,-3.3956,-3.3954,-3.3953,-3.3952,-3.3955,-3.3985,-3.3986,-3.3986,-3.3987,0,-3.3556,-3.3564,-3.3599,-3.3638,-3.3667,-3.3697,-3.3727,-3.3745,-3.3764,-3.3791,-3.3831,-3.3855,-3.3903,-3.394,-3.3977,-3.3994,-3.3994,-3.3994,-3.4003,-3.4002,-3.3996,-3.4001,-3.3914,-3.3992,-3.3992,-3.3991,-3.3991,-3.3991,-3.3599,-3.3627,-3.3661,-3.37,-3.3724,-3.3752,-3.3781,-3.38,-3.3834,-3.3875,-3.3881,-3.3924,-3.3953,-3.4002,-3.4021,-3.4054,-3.4046,-3.4058,-3.4062,-3.4065,-3.4067,-3.399,-3.406,-3.406,-3.406,-3.406,-3.406,0,-3.3662,-3.3684,-3.372,-3.3763,-3.3793,-3.3792,-3.3825,-3.385,-3.3888,-3.3917,-3.3948,-3.3994,-3.4031,-3.4054,-3.4091,-3.4113,-3.4114,-3.4122,-3.4121,-3.4125,-3.4071,-3.4061,-3.4121,-3.4121,-3.4121,-3.4121,-3.4121,-3.4121,-3.3699,-3.3748,-3.3761,-3.3822,-3.3843,-3.3886,-3.3905,-3.3931,-3.3954,-3.4006,-3.4037,-3.4053,-3.4079,-3.4118,-3.4151,-3.4157,-3.4171,-3.418,-3.4185,-3.4135,-3.4129,-3.4123,-3.4113,-3.4183,-3.4183,-3.4237,-3.4237,-3.4238]}]]